Regional Weather Roundup
Issued by NWS

Home | Current Version | Previous Version | Text Only | Print | Product List | Glossary Off
Versions: 1 2 3 4 5 6 7 8 9 10 11 12 13 14 15 16 17 18 19 20 21 22 23 24 25 26 27 28 29 30 31 32 33 34 35 36 37 38 39 40 41 42 43 44 45 46 47 48 49 50

000
ASUS43 KFSD 230810
RWRSD

WEATHER ROUNDUP FOR SOUTH DAKOTA
NATIONAL WEATHER SERVICE SIOUX FALLS SD
300 AM CDT SAT MAY 23 2015

NOTE: "FAIR" INDICATES FEW OR NO CLOUDS BELOW 12,000 FEET WITH NO
SIGNIFICANT WEATHER AND/OR OBSTRUCTIONS TO VISIBILITY.


SDZ001>005-009-010-012>017-230900-
NORTHWEST AND NORTH CENTRAL SOUTH DAKOTA

CITY           SKY/WX    TMP DP  RH WIND       PRES   REMARKS
BUFFALO          N/A     44  40  85 E12       30.00S
FAITH            N/A     44  40  85 SE8       30.08F
MOBRIDGE       PTCLDY    48  45  89 E3        30.12S
$$

SDZ012>016-024>037-041>051-057-063-072>074-230900-
SOUTHWEST AND SOUTH CENTRAL SOUTH DAKOTA

CITY           SKY/WX    TMP DP  RH WIND       PRES   REMARKS
RAPID CTY ARPT CLOUDY    47  44  90 SE5       30.05F
PIERRE         CLOUDY    50  43  77 SE8       30.12F
CUSTER         FOG       40  39  97 S7        30.06S VSB 1/4
ELLSWORTH AFB  CLOUDY    48  45  88 S10       30.05S
PHILIP         CLOUDY    49  44  83 SE7       30.10S
PINE RIDGE     CLOUDY    46  42  86 SE3       30.07S
SPEARFISH      FAIR      41  37  87 S5        30.04S
WINNER         CLOUDY    51  46  83 E8        30.13F
$$

SDZ004>011-016>023-039-040-230900-
NORTHEAST SOUTH DAKOTA

CITY           SKY/WX    TMP DP  RH WIND       PRES   REMARKS
ABERDEEN       CLEAR     43  40  89 SE6       30.19S
WATERTOWN      PTCLDY    49  41  74 SW5       30.20S
BROOKINGS      CLOUDY    52  45  76 CALM      30.23R
SISSETON         N/A     56  40  55 W17G23    30.16S
$$

SDZ017-020-022-023-036>040-048>070-230900-
SOUTHEAST SOUTH DAKOTA

CITY           SKY/WX    TMP DP  RH WIND       PRES   REMARKS
SIOUX FALLS    CLOUDY    58  43  57 SE8       30.19F
HURON          MOCLDY    49  46  90 SE5       30.19S
CHAMBERLAIN    CLOUDY    50  47  87 SE9       30.15F
MITCHELL       CLOUDY    54  47  77 S7        30.20R
YANKTON        CLOUDY    54  46  76 E5        30.18S
$$

ABBREVIATIONS USED IN REMARKS
   TC - TEMPERATURE IN CELSIUS
  WCI - WIND CHILL INDEX
   HX - HEAT INDEX
  VSB - VISIBILITY




USA.gov is the U.S. government's official web portal to all federal, state and local government web resources and services.